Weather History for PHHI - February, 2013

Change the Weather History Date:

Monday, February 25, 2013

  Actual Average Record
Temperature  
Mean Temperature 69 °F -  
Max Temperature 73 °F 74 °F 78 °F (1998)
Min Temperature 64 °F 61 °F 59 °F (1999)
Cooling Degree Days 4    
Growing Degree Days 19 (Base 50)    
Moisture  
Dew Point 59 °F    
Average Humidity 74    
Maximum Humidity 88    
Minimum Humidity 58    
Precipitation  
Precipitation 0.02 in - - ()
Sea Level Pressure  
Sea Level Pressure 30.10 in    
Wind  
Wind Speed 8 mph (NNE)    
Max Wind Speed 16 mph    
Max Gust Speed 23 mph    
Visibility 10 miles    
Events Rain    
Averages and records for this station are not official NWS values.
T = Trace of Precipitation, MM = Missing Value Source: NWS Daily Summary

Daily Weather History Graph

Daily Weather History Graph

Search for Another Location

Airport or City:

Trip Planner

Search our weather history database for the weather conditions in past years. The results will help you decide how hot, cold, wet, or windy it might be!

Date:

Astronomy

Feb. 25, 2013 Rise Set
Actual Time 6:55 AM HST 6:34 PM HST
Civil Twilight 6:33 AM HST 6:57 PM HST
Nautical Twilight 6:07 AM HST 7:23 PM HST
Astronomical Twilight 5:41 AM HST 7:49 PM HST
Moon 6:50 PM HST 6:38 AM HST
Length of Visible Light 12h 24m
Length of Day
11h 39m
Full, 100% of the Moon is Illuminated
Feb 25
Full
Mar 4
Last Quarter
Mar 11
New
Mar 19
First Quarter
Mar 26
Full

Hourly Weather History & Observations

Time (HST) Temp. Dew Point Humidity Pressure Visibility Wind Dir Wind Speed Gust Speed Precip Events Conditions
12:55 AM 66.0 °F 57.4 °F 74% 30.11 in 10.0 mi ENE 9.2 mph - 0.00 in   Partly Cloudy
1:55 AM 66.4 °F 57.4 °F 73% 30.09 in 10.0 mi NE 8.1 mph - N/A   Mostly Cloudy
2:55 AM 65.7 °F 57.4 °F 75% 30.07 in 10.0 mi NNE 6.9 mph - N/A   Partly Cloudy
3:55 AM 65.8 °F 57.2 °F 74% 30.06 in 10.0 mi NE 9.2 mph - N/A   Partly Cloudy
4:55 AM 65.8 °F 57.6 °F 75% 30.06 in 10.0 mi NE 11.5 mph - N/A   Clear
5:55 AM 65.8 °F 56.7 °F 72% 30.07 in 10.0 mi NNE 9.2 mph - N/A   Mostly Cloudy
6:55 AM 65.1 °F 56.5 °F 74% 30.09 in 10.0 mi NE 5.8 mph - N/A   Scattered Clouds
7:55 AM 66.0 °F 57.4 °F 74% 30.10 in 10.0 mi NNE 6.9 mph - N/A   Mostly Cloudy
8:55 AM 68.4 °F 57.9 °F 69% 30.12 in 10.0 mi NE 6.9 mph - N/A   Scattered Clouds
9:55 AM 71.2 °F 58.8 °F 65% 30.13 in 10.0 mi NE 10.4 mph - N/A   Mostly Cloudy
10:55 AM 72.0 °F 58.8 °F 63% 30.12 in 10.0 mi NE 13.8 mph - N/A   Mostly Cloudy
11:55 AM 73.6 °F 59.2 °F 61% 30.11 in 10.0 mi NE 11.5 mph 21.9 mph N/A   Mostly Cloudy
12:55 PM 73.8 °F 58.3 °F 58% 30.09 in 10.0 mi ENE 15.0 mph 23.0 mph N/A   Scattered Clouds
1:55 PM 73.4 °F 58.5 °F 59% 30.06 in 10.0 mi ENE 10.4 mph 18.4 mph N/A   Scattered Clouds
2:55 PM 72.9 °F 59.2 °F 62% 30.05 in 10.0 mi NE 12.7 mph - N/A   Mostly Cloudy
3:55 PM 72.0 °F 59.5 °F 65% 30.05 in 10.0 mi NE 15.0 mph - N/A   Scattered Clouds
4:55 PM 71.1 °F 59.7 °F 67% 30.05 in 10.0 mi NE 16.1 mph - N/A   Mostly Cloudy
5:55 PM 69.8 °F 59.7 °F 70% 30.07 in 10.0 mi North 4.6 mph - N/A   Mostly Cloudy
6:55 PM 68.7 °F 59.9 °F 73% 30.09 in 10.0 mi North 9.2 mph - N/A   Mostly Cloudy
7:24 PM 69.8 °F 60.8 °F 73% 30.11 in 10.0 mi NNE 4.6 mph - N/A Rain Light Rain
7:35 PM 68.0 °F 60.8 °F 78% 30.11 in 10.0 mi North 6.9 mph - N/A   Overcast
7:47 PM 68.0 °F 60.8 °F 78% 30.12 in 10.0 mi Calm Calm - N/A   Drizzle
7:55 PM 68.5 °F 61.2 °F 77% 30.12 in 8.0 mi Calm Calm - 0.00 in Rain Light Rain
8:02 PM 68.0 °F 60.8 °F 78% 30.12 in 10.0 mi East 3.5 mph - N/A   Overcast
8:22 PM 68.0 °F 60.8 °F 78% 30.13 in 10.0 mi North 8.1 mph - N/A Rain Light Rain
8:32 PM 66.2 °F 60.8 °F 83% 30.13 in 10.0 mi NNE 6.9 mph - N/A   Scattered Clouds
8:36 PM 66.2 °F 60.8 °F 83% 30.13 in 10.0 mi NNE 6.9 mph - N/A   Light Drizzle
8:53 PM 66.2 °F 60.8 °F 83% 30.14 in 10.0 mi North 3.5 mph - N/A   Light Drizzle
8:55 PM 66.4 °F 61.2 °F 83% 30.14 in 10.0 mi NNW 5.8 mph - 0.00 in   Light Drizzle
9:29 PM 66.2 °F 62.6 °F 88% 30.14 in 10.0 mi North 4.6 mph - N/A   Partly Cloudy
9:55 PM 66.2 °F 61.9 °F 86% 30.14 in 10.0 mi Calm Calm - 0.02 in   Clear
10:55 PM 67.3 °F 61.0 °F 80% 30.14 in 10.0 mi Variable 5.8 mph - N/A   Scattered Clouds
11:55 PM 64.4 °F 59.5 °F 84% 30.13 in 10.0 mi WNW 4.6 mph - N/A   Mostly Cloudy